This demonstration page uses our WeatherBlox Daily Observations layout. Learn more.

Left ArrowRight Arrow

39.12711, -84.51439

Hourly Observations for January 24, 2017

Temp ( °F °C ) Dew Point ( °F °C ) Humidity (%) Winds ( mph kmh ) Pressure ( in mb ) Visibility ( mi km ) Precip ( " mm )
12:01 am 00:01 Cloudy 45 7.2 43 6.1 93 93 WNW 13 20 29.74 1007 9 14 N/A
12:53 am 00:53 Cloudy 44 6.7 42 5.6 93 93 NNW 8 13 29.72 1006 9 14 N/A
1:25 am 01:25 Cloudy 44 6.7 42 5.6 93 93 W 3 6 29.74 1007 10 16 N/A
1:53 am 01:53 Cloudy 44 6.7 41 5 89 89 WNW 5 7 29.72 1007 10 16 N/A
2:36 am 02:36 Cloudy 43 6 41 5 93 93 WNW 7 11 29.77 1008 10 16 N/A
2:53 am 02:53 Cloudy 43 6.1 41 5 93 93 W 8 13 29.75 1008 9 14 N/A
3:53 am 03:53 Cloudy 43 6.1 41 5 93 93 undefined N/A 29.75 1008 10 16 N/A
4:53 am 04:53 Cloudy 42 5.6 40 4.4 92 92 WNW 9 15 29.78 1008 10 16 N/A
5:12 am 05:12 Cloudy 43 6 39 4 87 87 VRB 6 9 29.80 1009 10 16 N/A
5:53 am 05:53 Cloudy 42 5.6 40 4.4 92 92 W 5 7 29.79 1009 10 16 N/A
6:53 am 06:53 Cloudy 42 5.6 40 4.4 92 92 WNW 8 13 29.81 1009 10 16 N/A
7:53 am 07:53 Cloudy 42 5.6 40 4.4 92 92 W 9 15 29.83 1010 10 16 N/A
8:53 am 08:53 Cloudy 43 6.1 39 3.9 86 86 WNW 7 11 29.85 1011 10 16 N/A
9:53 am 09:53 Cloudy 43 6.1 40 4.4 89 89 NW 8 13 29.87 1012 10 16 N/A
10:53 am 10:53 Cloudy 43 6.1 39 3.9 86 86 W 6 9 29.89 1012 10 16 N/A
11:53 am 11:53 Cloudy 43 6.1 40 4.4 89 89 W 7 11 29.88 1012 9 14 N/A
12:53 pm 12:53 Cloudy 45 7.2 39 3.9 80 80 WNW 7 11 29.86 1011 10 16 N/A
1:53 pm 13:53 Cloudy 46 7.8 37 2.8 71 71 W 9 15 29.84 1011 10 16 N/A
2:53 pm 14:53 Cloudy 45 7.2 36 2.2 71 71 WNW 10 17 29.86 1011 10 16 N/A
3:53 pm 15:53 Cloudy 45 7.2 36 2.2 71 71 W 9 15 29.86 1011 10 16 N/A
4:53 pm 16:53 Cloudy 44 6.7 36 2.2 73 73 WSW 10 17 29.88 1012 10 16 N/A
5:53 pm 17:53 Cloudy 43 6.1 35 1.7 74 74 W 6 9 29.91 1013 10 16 N/A
6:53 pm 18:53 Cloudy 42 5.6 34 1.1 73 73 W 7 11 29.91 1013 10 16 N/A
7:53 pm 19:53 Cloudy 41 5 35 1.7 79 79 N N/A 29.89 1012 10 16 N/A
8:53 pm 20:53 Partly Cloudy 39 3.9 35 1.7 86 86 E 3 6 29.88 1012 10 16 N/A
9:53 pm 21:53 Clear 37 2.8 35 1.7 93 93 N N/A 29.88 1012 10 16 N/A
10:53 pm 22:53 Clear 37 2.8 35 1.7 93 93 N N/A 29.88 1012 9 14 N/A
11:53 pm 23:53 Clear 36 2.2 35 1.7 97 97 ENE 3 6 29.86 1011 7 11 N/A

Powered by AerisWeather